カタログに戻る

VLADIVOSTOK-1

運用中アマチュア無線SSO
NORAD 61750·PAYLOAD·🇷🇺 Russia
この衛星名は、まだ公式ソースで確認されていません。

打ち上げ Nov 4, 2024 から Vostochny Cosmodrome

Loading…

次のパス (今後24時間)

TLE

最新Source: Space-Track

元期: Sep 14, 2026, 15:34 UTC

1 61750U 24199R   26257.64885712  .00041195  00000-0  47462-3 0  9993
2 61750  97.2778 135.4801 0003581 333.6392  26.4683 15.61856900151488

AllMySatでVLADIVOSTOK-1をリアルタイム追跡

Download on the App Store